Location: Degersen
(52.2871°N, 9.5716°E)
Time: 20:20:32
(UTC+00:00)

Cosmos 407 Rocket - Pass Details

Date: 20 January 2026
Orbit: 738 x 782 km, 74.0° (Epoch: 16 February)

Event Time Altitude Azimuth Distance (km) Brightness Sun altitude
Rises 05:37:53 0° 212° (SSW) 3,180 6.5 -15.0°
Reaches altitude 10° 05:40:14 10° 215° (SW) 2,265 5.7 -14.7°
Maximum altitude 05:45:21 68° 298° (WNW) 817 3.4 -13.9°
Drops below altitude 10° 05:50:35 10° 22° (NNE) 2,309 6.1 -13.1°
Sets 05:53:00 0° 25° (NNE) 3,247 6.9 -12.8°
